When you browse on this site, cookies collect data to enhance your experience and personalize the content and advertising you see.
Visit our Privacy Policy to learn more. By continuing to use the site, you agree to this use of cookies and data.
  • în România
  • Lista ţărilor
  • Pe 7 zile
  • Temperatura apei
  • Meteo pe hartă
  • Widget-uri
  • user-avatar
    Intrare

    Meteo pe oră la Murcia

    Astăzi, 20 Februarie, Joi

    Timp Temperatura Precipitaţii Vânt Presiune Umiditate
    00:00 +9°C° 0 mm 0 m/s 766 mmHg 94%
    01:00 +9°C° 0 mm 0 m/s 766 mmHg 95%
    02:00 +8°C° 0 mm 0 m/s 765 mmHg 95%
    03:00 +8°C° 0 mm 0 m/s 765 mmHg 96%
    04:00 +8°C° 0 mm 0 m/s 764 mmHg 96%
    05:00 +7°C° 0 mm 0 m/s 764 mmHg 96%
    06:00 +7°C° 0 mm 0 m/s 764 mmHg 96%
    07:00 +9°C° 0 mm 0 m/s 764 mmHg 90%
    08:00 +11°C° 0 mm 0 m/s 764 mmHg 84%
    09:00 +13°C° 0 mm 1 m/s 764 mmHg 79%
    10:00 +15°C° 0 mm 1 m/s 764 mmHg 70%
    11:00 +16°C° 0 mm 1 m/s 763 mmHg 62%
    12:00 +18°C° 0 mm 1 m/s 763 mmHg 53%
    13:00 +18°C° 0 mm 2 m/s 763 mmHg 52%
    14:00 +18°C° 0 mm 2 m/s 762 mmHg 51%
    15:00 +18°C° 0 mm 3 m/s 762 mmHg 50%
    16:00 +17°C° 0 mm 3 m/s 762 mmHg 59%
    17:00 +15°C° 0 mm 2 m/s 762 mmHg 67%
    18:00 +13°C° 0 mm 2 m/s 762 mmHg 76%
    19:00 +12°C° 0 mm 2 m/s 763 mmHg 79%
    20:00 +12°C° 0 mm 1 m/s 763 mmHg 82%
    21:00 +11°C° 0 mm 1 m/s 764 mmHg 86%
    22:00 +11°C° 0 mm 1 m/s 764 mmHg 86%
    23:00 +10°C° 0 mm 1 m/s 764 mmHg 87%

    Mâine, 21 Februarie, Vineri

    Timp Temperatura Precipitaţii Vânt Presiune Umiditate
    00:00 +10°C° 0 mm 1 m/s 765 mmHg 87%
    01:00 +10°C° 0 mm 1 m/s 764 mmHg 87%
    02:00 +10°C° 0 mm 1 m/s 764 mmHg 87%
    03:00 +9°C° 0 mm 1 m/s 764 mmHg 87%
    04:00 +9°C° 0 mm 1 m/s 765 mmHg 87%
    05:00 +8°C° 0 mm 2 m/s 765 mmHg 87%
    06:00 +8°C° 0 mm 2 m/s 766 mmHg 87%
    13:00 +18°C° 0 mm 4 m/s 767 mmHg 49%
    14:00 +18°C° 0 mm 4 m/s 766 mmHg 49%
    15:00 +18°C° 0 mm 4 m/s 766 mmHg 49%
    16:00 +16°C° 0 mm 3 m/s 766 mmHg 59%
    17:00 +14°C° 0 mm 3 m/s 766 mmHg 69%
    18:00 +13°C° 0 mm 2 m/s 766 mmHg 79%
    19:00 +12°C° 0 mm 2 m/s 767 mmHg 83%
    20:00 +11°C° 0 mm 1 m/s 767 mmHg 87%
    21:00 +11°C° 0 mm 1 m/s 767 mmHg 91%
    22:00 +10°C° 0 mm 1 m/s 767 mmHg 91%
    23:00 +10°C° 0 mm 1 m/s 767 mmHg 91%

    Poimâine, 22 Februarie, Sâmbătă

    Timp Temperatura Precipitaţii Vânt Presiune Umiditate
    00:00 +10°C° 0 mm 1 m/s 768 mmHg 92%
    01:00 +9°C° 0 mm 1 m/s 767 mmHg 91%
    02:00 +9°C° 0 mm 1 m/s 767 mmHg 90%
    03:00 +9°C° 0 mm 1 m/s 767 mmHg 90%
    04:00 +9°C° 0 mm 1 m/s 767 mmHg 89%
    05:00 +8°C° 0 mm 1 m/s 768 mmHg 88%
    06:00 +8°C° 0 mm 1 m/s 768 mmHg 87%
    07:00 +9°C° 0 mm 0 m/s 768 mmHg 80%
    08:00 +11°C° 0 mm 0 m/s 768 mmHg 72%
    09:00 +13°C° 0 mm 0 m/s 768 mmHg 64%
    10:00 +16°C° 0 mm 1 m/s 769 mmHg 59%
    11:00 +18°C° 0 mm 1 m/s 769 mmHg 54%
    12:00 +18°C° 0 mm 2 m/s 769 mmHg 49%
    13:00 +19°C° 0 mm 2 m/s 768 mmHg 48%
    14:00 +19°C° 0 mm 3 m/s 768 mmHg 47%
    15:00 +19°C° 0 mm 3 m/s 767 mmHg 46%
    16:00 +18°C° 0 mm 3 m/s 768 mmHg 57%
    17:00 +16°C° 0 mm 2 m/s 768 mmHg 68%
    18:00 +14°C° 0 mm 2 m/s 768 mmHg 78%
    19:00 +13°C° 0 mm 2 m/s 768 mmHg 82%
    20:00 +12°C° 0 mm 1 m/s 769 mmHg 87%
    21:00 +11°C° 0 mm 1 m/s 769 mmHg 91%
    22:00 +11°C° 0 mm 1 m/s 769 mmHg 91%
    23:00 +10°C° 0 mm 1 m/s 769 mmHg 91%

    23 Februarie, Duminică

    Timp Temperatura Precipitaţii Vânt Presiune Umiditate
    00:00 +10°C° 0 mm 1 m/s 770 mmHg 92%
    01:00 +10°C° 0 mm 1 m/s 769 mmHg 91%
    02:00 +9°C° 0 mm 1 m/s 769 mmHg 91%
    03:00 +9°C° 0 mm 1 m/s 769 mmHg 91%
    04:00 +9°C° 0 mm 1 m/s 769 mmHg 90%
    05:00 +7°C° 0 mm 0 m/s 769 mmHg 90%
    06:00 +7°C° 0 mm 0 m/s 769 mmHg 89%
    07:00 +10°C° 0 mm 1 m/s 769 mmHg 81%
    08:00 +12°C° 0 mm 1 m/s 769 mmHg 74%
    09:00 +14°C° 0 mm 1 m/s 770 mmHg 66%
    10:00 +16°C° 0 mm 1 m/s 770 mmHg 58%
    11:00 +18°C° 0 mm 1 m/s 770 mmHg 50%
    12:00 +18°C° 0 mm 2 m/s 769 mmHg 42%
    13:00 +19°C° 0 mm 2 m/s 769 mmHg 41%
    14:00 +19°C° 0 mm 2 m/s 768 mmHg 41%
    15:00 +20°C° 0 mm 3 m/s 768 mmHg 40%
    16:00 +18°C° 0 mm 2 m/s 768 mmHg 50%
    17:00 +16°C° 0 mm 2 m/s 768 mmHg 61%
    18:00 +14°C° 0 mm 2 m/s 767 mmHg 71%
    19:00 +13°C° 0 mm 1 m/s 768 mmHg 76%
    20:00 +12°C° 0 mm 1 m/s 768 mmHg 81%
    21:00 +10°C° 0 mm 0 m/s 768 mmHg 85%
    22:00 +9°C° 0 mm 0 m/s 768 mmHg 85%
    23:00 +9°C° 0 mm 0 m/s 768 mmHg 85%

    24 Februarie, Luni

    Timp Temperatura Precipitaţii Vânt Presiune Umiditate
    00:00 +10°C° 0 mm 1 m/s 768 mmHg 84%
    01:00 +8°C° 0 mm 0 m/s 768 mmHg 83%
    02:00 +8°C° 0 mm 0 m/s 767 mmHg 82%
    03:00 +8°C° 0 mm 0 m/s 767 mmHg 81%
    04:00 +8°C° 0 mm 0 m/s 767 mmHg 81%
    05:00 +8°C° 0 mm 0 m/s 767 mmHg 80%
    06:00 +7°C° 0 mm 0 m/s 767 mmHg 80%
    07:00 +10°C° 0 mm 0 m/s 767 mmHg 70%
    08:00 +12°C° 0 mm 0 m/s 767 mmHg 60%
    09:00 +15°C° 0 mm 0 m/s 767 mmHg 50%
    10:00 +18°C° 0 mm 1 m/s 767 mmHg 44%
    11:00 +20°C° 0 mm 1 m/s 766 mmHg 38%
    12:00 +21°C° 0 mm 1 m/s 766 mmHg 32%
    13:00 +21°C° 0 mm 2 m/s 765 mmHg 32%
    14:00 +21°C° 0 mm 2 m/s 765 mmHg 33%
    15:00 +21°C° 0 mm 2 m/s 764 mmHg 33%
    16:00 +19°C° 0 mm 2 m/s 764 mmHg 43%
    17:00 +17°C° 0 mm 2 m/s 764 mmHg 53%
    18:00 +14°C° 0 mm 1 m/s 764 mmHg 63%
    19:00 +13°C° 0 mm 1 m/s 764 mmHg 67%
    20:00 +12°C° 0 mm 0 m/s 764 mmHg 70%
    21:00 +11°C° 0 mm 0 m/s 764 mmHg 74%
    22:00 +11°C° 0 mm 0 m/s 764 mmHg 73%
    23:00 +10°C° 0 mm 0 m/s 764 mmHg 73%

    25 Februarie, Marţi

    Timp Temperatura Precipitaţii Vânt Presiune Umiditate
    00:00 +10°C° 0 mm 0 m/s 764 mmHg 72%
    01:00 +11°C° 0 mm 1 m/s 763 mmHg 72%
    02:00 +11°C° 0 mm 1 m/s 763 mmHg 72%
    03:00 +11°C° 0 mm 1 m/s 763 mmHg 72%
    04:00 +11°C° 0 mm 1 m/s 763 mmHg 71%
    05:00 +11°C° 0 mm 1 m/s 763 mmHg 70%
    06:00 +11°C° 0 mm 1 m/s 763 mmHg 69%
    07:00 +13°C° 0 mm 1 m/s 763 mmHg 58%
    08:00 +16°C° 0 mm 2 m/s 763 mmHg 48%
    09:00 +18°C° 0 mm 2 m/s 763 mmHg 38%
    10:00 +20°C° 0 mm 2 m/s 763 mmHg 34%
    11:00 +23°C° 0 mm 2 m/s 763 mmHg 31%
    12:00 +24°C° 0 mm 3 m/s 762 mmHg 27%
    13:00 +25°C° 0 mm 3 m/s 762 mmHg 26%
    14:00 +25°C° 0 mm 3 m/s 761 mmHg 26%
    15:00 +25°C° 0 mm 3 m/s 761 mmHg 25%
    16:00 +22°C° 0 mm 3 m/s 760 mmHg 33%
    17:00 +20°C° 0 mm 3 m/s 760 mmHg 42%
    18:00 +17°C° 0 mm 3 m/s 760 mmHg 50%
    19:00 +17°C° 0 mm 3 m/s 761 mmHg 51%
    20:00 +17°C° 0 mm 2 m/s 761 mmHg 52%
    21:00 +16°C° 0 mm 2 m/s 761 mmHg 53%
    22:00 +16°C° 0 mm 2 m/s 761 mmHg 54%
    23:00 +15°C° 0 mm 2 m/s 761 mmHg 55%
    Arată mai mult